When you browse on this site, cookies collect data to enhance your experience and personalize the content and advertising you see.
Visit our Privacy Policy to learn more. By continuing to use the site, you agree to this use of cookies and data.
  • In Romania
  • List of Countries
  • For 7 days
  • Water Temperature
  • Satellite Maps
  • Weather Map
  • Weather Widgets
  • user-avatar
    Login

    Hourly Weather Leipzig

    Today, 24 May, Friday

    Time Temperature Precipitation Wind Pressure Humidity
    00:00 +12°C° 0 mm 2 mps 752 mmHg 82%
    01:00 +10°C° 0 mm 2 mps 752 mmHg 86%
    02:00 +10°C° 0 mm 2 mps 752 mmHg 87%
    03:00 +10°C° 0 mm 2 mps 752 mmHg 88%
    04:00 +9°C° 0 mm 2 mps 751 mmHg 90%
    05:00 +12°C° 0 mm 2 mps 751 mmHg 87%
    06:00 +13°C° 0 mm 2 mps 751 mmHg 83%
    07:00 +15°C° 0 mm 2 mps 751 mmHg 80%
    08:00 +17°C° 0 mm 2 mps 751 mmHg 75%
    09:00 +18°C° 0 mm 2 mps 751 mmHg 70%
    10:00 +20°C° 0 mm 2 mps 751 mmHg 65%
    11:00 +21°C° 0.1 mm 2 mps 751 mmHg 62%
    12:00 +21°C° 0.1 mm 2 mps 750 mmHg 58%
    13:00 +22°C° 0.1 mm 3 mps 750 mmHg 55%
    14:00 +23°C° 0 mm 2 mps 750 mmHg 54%
    15:00 +23°C° 0 mm 2 mps 749 mmHg 53%
    16:00 +23°C° 0 mm 2 mps 749 mmHg 52%
    17:00 +21°C° 0 mm 2 mps 749 mmHg 58%
    18:00 +20°C° 0 mm 2 mps 749 mmHg 64%
    19:00 +20°C° 0 mm 1 mps 748 mmHg 70%
    20:00 +18°C° 0 mm 1 mps 749 mmHg 74%
    21:00 +16°C° 0 mm 1 mps 749 mmHg 79%
    22:00 +14°C° 0 mm 1 mps 749 mmHg 83%
    23:00 +14°C° 0 mm 1 mps 749 mmHg 85%

    Tomorrow, 25 May, Saturday

    Time Temperature Precipitation Wind Pressure Humidity
    00:00 +13°C° 0 mm 1 mps 749 mmHg 87%
    01:00 +13°C° 0 mm 2 mps 749 mmHg 89%
    02:00 +12°C° 0 mm 2 mps 749 mmHg 91%
    03:00 +12°C° 0 mm 2 mps 749 mmHg 93%
    04:00 +10°C° 0 mm 2 mps 749 mmHg 95%
    05:00 +12°C° 0 mm 2 mps 750 mmHg 91%
    06:00 +12°C° 0 mm 2 mps 750 mmHg 87%
    07:00 +13°C° 0 mm 2 mps 750 mmHg 83%
    08:00 +14°C° 0 mm 2 mps 750 mmHg 78%
    09:00 +15°C° 0 mm 2 mps 750 mmHg 74%
    10:00 +17°C° 0 mm 2 mps 751 mmHg 69%
    11:00 +17°C° 0 mm 3 mps 750 mmHg 68%
    12:00 +18°C° 0 mm 3 mps 750 mmHg 67%
    13:00 +18°C° 0 mm 3 mps 750 mmHg 65%
    14:00 +18°C° 0 mm 3 mps 750 mmHg 66%
    15:00 +18°C° 0 mm 3 mps 750 mmHg 67%
    16:00 +18°C° 0 mm 2 mps 749 mmHg 68%
    17:00 +18°C° 0 mm 2 mps 749 mmHg 72%
    18:00 +17°C° 0 mm 2 mps 749 mmHg 77%
    19:00 +16°C° 0 mm 2 mps 749 mmHg 82%
    20:00 +14°C° 0 mm 2 mps 750 mmHg 85%
    21:00 +13°C° 0 mm 2 mps 750 mmHg 89%
    22:00 +10°C° 0 mm 2 mps 750 mmHg 93%
    23:00 +10°C° 0 mm 2 mps 750 mmHg 93%

    Day after tomorrow, 26 May, Sunday

    Time Temperature Precipitation Wind Pressure Humidity
    00:00 +10°C° 0 mm 1 mps 750 mmHg 93%
    01:00 +10°C° 0 mm 1 mps 750 mmHg 92%
    02:00 +9°C° 0 mm 1 mps 750 mmHg 93%
    03:00 +9°C° 0 mm 1 mps 750 mmHg 93%
    04:00 +8°C° 0 mm 1 mps 750 mmHg 94%
    05:00 +9°C° 0 mm 2 mps 750 mmHg 91%
    06:00 +10°C° 0 mm 2 mps 750 mmHg 88%
    07:00 +11°C° 0 mm 3 mps 750 mmHg 84%
    08:00 +13°C° 0 mm 3 mps 750 mmHg 78%
    09:00 +16°C° 0 mm 3 mps 749 mmHg 71%
    10:00 +18°C° 0 mm 4 mps 749 mmHg 64%
    11:00 +18°C° 0 mm 4 mps 749 mmHg 63%
    12:00 +19°C° 0 mm 5 mps 749 mmHg 62%
    13:00 +20°C° 0 mm 5 mps 748 mmHg 61%
    14:00 +20°C° 0 mm 5 mps 748 mmHg 62%
    15:00 +20°C° 0 mm 5 mps 748 mmHg 62%
    16:00 +21°C° 0 mm 5 mps 748 mmHg 63%
    17:00 +20°C° 0 mm 4 mps 748 mmHg 67%
    18:00 +19°C° 0 mm 3 mps 748 mmHg 72%
    19:00 +19°C° 0 mm 2 mps 747 mmHg 76%
    20:00 +17°C° 0 mm 2 mps 747 mmHg 79%
    21:00 +16°C° 0 mm 2 mps 747 mmHg 81%
    22:00 +14°C° 0 mm 3 mps 747 mmHg 84%
    23:00 +13°C° 0 mm 3 mps 747 mmHg 83%

    27 May, Monday

    Time Temperature Precipitation Wind Pressure Humidity
    00:00 +13°C° 0 mm 3 mps 747 mmHg 82%
    01:00 +13°C° 0 mm 4 mps 747 mmHg 82%
    02:00 +13°C° 0 mm 4 mps 746 mmHg 83%
    03:00 +13°C° 0 mm 4 mps 746 mmHg 84%
    04:00 +12°C° 0 mm 4 mps 746 mmHg 85%
    05:00 +14°C° 0 mm 5 mps 746 mmHg 84%
    06:00 +15°C° 0 mm 6 mps 746 mmHg 83%
    07:00 +16°C° 0 mm 6 mps 746 mmHg 82%
    08:00 +16°C° 0.1 mm 6 mps 746 mmHg 82%
    09:00 +16°C° 0.1 mm 6 mps 746 mmHg 83%
    10:00 +16°C° 0.1 mm 5 mps 746 mmHg 83%
    11:00 +15°C° 0.1 mm 5 mps 746 mmHg 85%
    12:00 +15°C° 0.1 mm 4 mps 746 mmHg 87%
    13:00 +14°C° 0.1 mm 4 mps 746 mmHg 89%
    14:00 +17°C° 0.1 mm 4 mps 746 mmHg 84%
    15:00 +18°C° 0.1 mm 4 mps 746 mmHg 79%
    16:00 +19°C° 0.1 mm 4 mps 745 mmHg 74%
    17:00 +18°C° 0.1 mm 3 mps 746 mmHg 76%
    18:00 +18°C° 0.1 mm 2 mps 746 mmHg 77%
    19:00 +17°C° 0.1 mm 2 mps 746 mmHg 78%
    20:00 +16°C° 0 mm 2 mps 746 mmHg 82%
    21:00 +14°C° 0 mm 2 mps 746 mmHg 85%
    22:00 +12°C° 0 mm 2 mps 746 mmHg 89%
    23:00 +12°C° 0 mm 1 mps 746 mmHg 89%

    28 May, Tuesday

    Time Temperature Precipitation Wind Pressure Humidity
    00:00 +11°C° 0 mm 1 mps 746 mmHg 89%
    01:00 +9°C° 0 mm 0 mps 746 mmHg 89%
    02:00 +9°C° 0 mm 0 mps 746 mmHg 89%
    03:00 +9°C° 0 mm 0 mps 745 mmHg 89%
    04:00 +8°C° 0 mm 0 mps 745 mmHg 89%
    05:00 +10°C° 0 mm 0 mps 745 mmHg 85%
    06:00 +11°C° 0 mm 0 mps 745 mmHg 82%
    07:00 +13°C° 0 mm 1 mps 745 mmHg 78%
    08:00 +15°C° 0 mm 1 mps 745 mmHg 74%
    09:00 +16°C° 0 mm 2 mps 745 mmHg 70%
    10:00 +17°C° 0 mm 2 mps 744 mmHg 66%
    11:00 +18°C° 0 mm 2 mps 744 mmHg 64%
    12:00 +19°C° 0 mm 2 mps 744 mmHg 61%
    13:00 +20°C° 0 mm 2 mps 744 mmHg 58%
    14:00 +19°C° 0.2 mm 2 mps 744 mmHg 61%
    15:00 +19°C° 0.2 mm 2 mps 744 mmHg 64%
    16:00 +19°C° 0.2 mm 2 mps 744 mmHg 67%
    17:00 +17°C° 0.2 mm 2 mps 744 mmHg 74%
    18:00 +16°C° 0.2 mm 3 mps 744 mmHg 81%
    19:00 +14°C° 0.2 mm 3 mps 744 mmHg 87%
    20:00 +13°C° 0 mm 3 mps 745 mmHg 89%
    21:00 +14°C° 0 mm 2 mps 745 mmHg 91%
    22:00 +13°C° 0 mm 2 mps 746 mmHg 93%
    23:00 +13°C° 0.1 mm 2 mps 746 mmHg 94%

    29 May, Wednesday

    Time Temperature Precipitation Wind Pressure Humidity
    00:00 +13°C° 0.1 mm 2 mps 746 mmHg 94%
    01:00 +11°C° 0.1 mm 3 mps 746 mmHg 95%
    02:00 +11°C° 0.1 mm 3 mps 747 mmHg 95%
    03:00 +11°C° 0.1 mm 4 mps 747 mmHg 95%
    04:00 +10°C° 0.1 mm 5 mps 747 mmHg 95%
    05:00 +9°C° 0.3 mm 5 mps 748 mmHg 95%
    06:00 +9°C° 0.3 mm 5 mps 748 mmHg 94%
    07:00 +9°C° 0.3 mm 5 mps 749 mmHg 94%
    08:00 +9°C° 0.4 mm 5 mps 749 mmHg 93%
    09:00 +9°C° 0.4 mm 5 mps 749 mmHg 92%
    10:00 +8°C° 0.4 mm 5 mps 750 mmHg 91%
    11:00 +9°C° 0.4 mm 5 mps 750 mmHg 88%
    12:00 +9°C° 0.4 mm 5 mps 750 mmHg 86%
    13:00 +11°C° 0.4 mm 4 mps 751 mmHg 83%
    14:00 +12°C° 0.3 mm 4 mps 751 mmHg 81%
    15:00 +12°C° 0.3 mm 4 mps 751 mmHg 78%
    16:00 +13°C° 0.3 mm 4 mps 752 mmHg 76%
    17:00 +12°C° 0.1 mm 3 mps 752 mmHg 77%
    18:00 +12°C° 0.1 mm 3 mps 752 mmHg 78%
    19:00 +12°C° 0.1 mm 3 mps 753 mmHg 79%
    20:00 +10°C° 0 mm 3 mps 753 mmHg 80%
    21:00 +9°C° 0 mm 3 mps 754 mmHg 81%
    22:00 +8°C° 0 mm 3 mps 754 mmHg 83%
    23:00 +7°C° 0 mm 3 mps 755 mmHg 84%
    Show more